TimeEDT,TemperatureF,Dew PointF,Humidity,Sea Level PressureIn,VisibilityMPH,Wind Direction,Wind SpeedMPH,Gust SpeedMPH,PrecipitationIn,Events,Conditions,WindDirDegrees,DateUTC
12:17 AM,44.6,44.6,100,29.65,2.5,East,13.8,-,0.00,Rain,Light Rain,100,2013-04-01 04:17:00
12:42 AM,46.4,44.6,93,29.63,3.0,SE,9.2,-,0.00,,Overcast,130,2013-04-01 04:42:00
12:53 AM,46.0,46.0,100,29.62,2.5,SSE,15.0,18.4,0.00,,Overcast,160,2013-04-01 04:53:00
1:04 AM,46.4,46.4,100,29.61,1.5,South,13.8,21.9,N/A,,Overcast,180,2013-04-01 05:04:00
1:21 AM,46.4,46.4,100,29.60,0.5,SSW,15.0,-,N/A,Fog,Fog,200,2013-04-01 05:21:00
2:38 AM,46.4,46.4,100,29.60,2.0,WSW,11.5,19.6,N/A,,Overcast,240,2013-04-01 06:38:00
2:53 AM,45.0,45.0,100,29.61,1.5,WSW,12.7,-,N/A,,Overcast,250,2013-04-01 06:53:00
3:10 AM,44.6,44.6,100,29.60,0.8,WSW,11.5,20.7,N/A,,Overcast,250,2013-04-01 07:10:00
3:19 AM,44.6,44.6,100,29.60,1.8,West,6.9,17.3,N/A,,Overcast,260,2013-04-01 07:19:00
3:22 AM,44.6,44.6,100,29.60,3.0,WSW,9.2,-,N/A,,Overcast,240,2013-04-01 07:22:00
3:37 AM,44.6,44.6,100,29.61,1.8,WSW,15.0,21.9,N/A,,Overcast,250,2013-04-01 07:37:00
4:16 AM,42.8,42.8,100,29.63,2.0,WSW,10.4,-,N/A,,Overcast,250,2013-04-01 08:16:00
4:29 AM,42.8,42.8,100,29.63,4.0,West,8.1,-,N/A,,Overcast,260,2013-04-01 08:29:00
5:25 AM,42.8,42.8,100,29.65,9.0,West,4.6,-,N/A,,Overcast,280,2013-04-01 09:25:00
5:53 AM,44.1,43.0,96,29.65,10.0,WNW,8.1,-,N/A,,Overcast,290,2013-04-01 09:53:00
6:53 AM,45.0,41.0,86,29.68,10.0,WNW,6.9,-,N/A,,Overcast,290,2013-04-01 10:53:00
7:53 AM,45.0,42.1,90,29.69,10.0,WSW,6.9,-,N/A,,Mostly Cloudy,240,2013-04-01 11:53:00
8:43 AM,46.4,42.8,87,29.68,10.0,WSW,5.8,-,N/A,,Scattered Clouds,240,2013-04-01 12:43:00
8:53 AM,46.9,43.0,86,29.69,10.0,WSW,5.8,-,N/A,,Partly Cloudy,240,2013-04-01 12:53:00
9:53 AM,48.0,43.0,83,29.68,10.0,SW,9.2,-,N/A,,Clear,230,2013-04-01 13:53:00
10:53 AM,48.9,43.0,80,29.70,10.0,SW,11.5,-,N/A,,Clear,230,2013-04-01 14:53:00
11:53 AM,50.0,43.0,77,29.68,10.0,SSW,13.8,21.9,N/A,,Clear,210,2013-04-01 15:53:00
12:53 PM,52.0,43.0,71,29.67,8.0,SSW,17.3,26.5,N/A,,Clear,210,2013-04-01 16:53:00
1:53 PM,50.0,43.0,77,29.64,7.0,SSW,16.1,26.5,N/A,,Clear,210,2013-04-01 17:53:00
2:53 PM,52.0,43.0,71,29.63,9.0,SW,13.8,20.7,N/A,,Clear,220,2013-04-01 18:53:00
3:53 PM,54.0,42.1,64,29.60,10.0,SSW,16.1,24.2,N/A,,Clear,210,2013-04-01 19:53:00
4:53 PM,48.9,42.1,77,29.63,9.0,Variable,6.9,-,N/A,,Overcast,0,2013-04-01 20:53:00
6:14 PM,42.8,37.4,81,29.69,10.0,NW,16.1,32.2,0.01,Rain,Light Rain,320,2013-04-01 22:14:00
6:53 PM,42.1,37.0,82,29.71,10.0,NNW,11.5,21.9,0.01,,Overcast,330,2013-04-01 22:53:00
7:53 PM,41.0,32.0,70,29.74,10.0,NW,9.2,-,0.00,,Overcast,320,2013-04-01 23:53:00
8:53 PM,39.9,28.0,63,29.76,10.0,NNW,9.2,20.7,N/A,,Scattered Clouds,330,2013-04-02 00:53:00
9:53 PM,39.0,19.9,46,29.81,10.0,NNW,8.1,23.0,N/A,,Clear,330,2013-04-02 01:53:00
10:53 PM,37.0,16.0,42,29.83,10.0,NW,8.1,-,N/A,,Clear,320,2013-04-02 02:53:00
11:53 PM,36.0,16.0,44,29.84,10.0,NW,10.4,20.7,N/A,,Clear,320,2013-04-02 03:53:00